Home   Weather   Feldkirch   Past weeks

Flag for Austria Past Weather in Feldkirch, Vorarlberg, Austria — Yesterday and Last 2 Weeks

Now
38 °F

Fog.


Feels Like: 38 °F
Forecast: 36 / 44 °F
Wind: No wind

Location: Feldkirch

Current Time: Apr 27, 2017 at 1:24:23 am

Latest Report: Apr 27, 2017 at 12:00 am


Visibility: N/A

Pressure: 29.91 "Hg

Humidity: 95%

Dew Point: 37 °F

Location of FeldkirchLocation

Past Weather in Feldkirch — Graph

°F

Feldkirch Temperature Yesterday

Maximum temperature yesterday: 45 °F (at 12:00 am)
Minimum temperature yesterday: 38 °F (at 11:00 pm)
Average temperature yesterday: 41 °F

High & Low Weather Summary for the Past Weeks

 TemperatureHumidityPressure
High67 °F (Apr 12, 6:00 pm)100% (Apr 19, 7:00 am)30.59 "Hg (Apr 19, 7:00 am)
Low27 °F (Apr 20, 7:00 am)23% (Apr 21, 5:00 pm)29.70 "Hg (Apr 25, 3:00 pm)
Average46 °F72%30.14 "Hg
* Reported Apr 11 11:00 pm — Apr 26 11:00 pm, Feldkirch, Weather by CustomWeather, © 2017

Note: Actual official high and low records may vary slightly from our data, if they occured in-between our weather recording intervals... More about our weather records

Advertising

Feldkirch Weather History for the Previous 24 Hours

Scroll right to see more
 ConditionsComfort  
Time TempWeatherWind HumidityBarometerVisibility
11:00 pm
Wed, Apr 26
38 °FChilly.1 mph95%29.92 "HgN/A
10:00 pm39 °FFog.1 mph94%29.93 "HgN/A
9:00 pm39 °FFog.1 mph94%29.90 "HgN/A
8:00 pm39 °FChilly.2 mph94%29.88 "HgN/A
7:00 pm40 °FChilly.2 mph93%29.88 "HgN/A
6:00 pm40 °FChilly.2 mph93%29.88 "HgN/A
5:00 pm40 °FQuite cool.2 mph92%29.87 "HgN/A
4:00 pm40 °FFog.3 mph92%29.87 "HgN/A
3:00 pm41 °FQuite cool.2 mph92%29.85 "HgN/A
2:00 pm41 °FQuite cool.2 mph93%29.85 "HgN/A
1:00 pm40 °FFog.2 mph94%29.83 "HgN/A
12:00 pm41 °FFog.2 mph95%29.83 "HgN/A
11:00 am40 °FLight rain. Overcast.2 mph94%29.81 "Hg3 mi
10:00 am40 °FFog.2 mph93%29.79 "HgN/A
9:00 am40 °FSprinkles. Cloudy.2 mph93%29.78 "HgN/A
8:00 am40 °FChilly.2 mph93%29.78 "HgN/A
7:00 am40 °FLight rain. Overcast.1 mph94%29.76 "Hg3 mi
6:00 am41 °FQuite cool.1 mph95%29.73 "HgN/A
5:00 am44 °FQuite cool.1 mph95%29.73 "HgN/A
4:00 am44 °FFog.No wind93%29.75 "HgN/A
3:00 am45 °FQuite cool.1 mph91%29.75 "HgN/A
2:00 am45 °FQuite cool.1 mph91%29.75 "HgN/A
1:00 am45 °FQuite cool.1 mph92%29.73 "HgN/A
Weather by CustomWeather, © 2017

See weather overviewHow to use our weather pages